Showing default

COSMOS 1579, 15085

Orbit data source: Space-Track

COSMOS 1579, 15085 is a payload satellite owned by VMF (CIS) in LEO that was launched on Fri, 29 Jun 1984 UTC via a TSIKLON-2 launch vehicle from the Tyuratam Missile And Space Complex (TTMTR). Payload-class satellites include a variety of spacecraft equipped with specific instruments for various scientific and technological missions. These include communications satellites like Starlink; space stations such as the ISS; scientific satellites like the Hubble; Earth observation satellites from companies like Planet Labs, Umbra, and HawkEye 360; GPS; miniature CubeSats for education and research; and military/defense satellites.

Loading next visibility...
Identifier
15085, 1984-069A
Orbit
LEO
Country
Flag of CISCIS
Related business
Manufacturer
Kometa
Mission
Spacecraft
Bus & Motor
US-A REACTOR, Unknown motor
Mass
4,300 kg wet, 1,154 kg dry
Launch date (UTC)
1984-06-29 (41 years ago)
Launch vehicle
TSIKLON-2
Launch site
Tyuratam Missile And Space Complex (TTMTR)
Object type
Payload
Rocket body
Debris
Shape & HBR
Unknown
Radar Cross Section
Large (>1 m²)

Expand to show TLE details & history
Last TLE update: 20 hours ago

TLE from 20 hours ago
0 COSMOS 1579
1 15085U 84069A   25348.89018990 -.00000044  00000-0  39001-4 0  9998
2 15085  65.0490 202.1632 0031816  98.6781 261.7887 13.86208146100233
Epoch: 2025-12-14T21:21Z
TLE epoch observation values (Epoch: 2025-12-14T21:21:52.407Z)
Latitude
-0.00001°
Longitude
157.89821°
Altitude
947.283 km
Speed
7.377 km/s
True Right ascension
13h 28m 39s
True Declination
0° 00' 00"
Sunlit
Object was in daylight at epoch
Visualization orbit readout
Latitude
Unknown
Longitude
Unknown
Altitude
Unknown
Speed
Unknown
Apparent Right ascension
Unknown
Apparent Declination
Unknown
Sunlit
N/A
Visualization observer readout
Local Sidereal Time
15:44:21
Azimuth
Unknown
Elevation
Unknown
Doppler factor
Unknown
Orbital elements
Apogee altitude
963.837 km
Perigee altitude
917.267 km
Semi-major axis
7,318.689 km
Eccentricity
0.00318
Inclination
65.049°
RAAN
202.1632°
Arg. of periapsis
98.6781°
True anomaly
261.42806°
Mean anomaly
261.7887°
Eccentric anomaly
261.60836°
Mean motion
3.46652 °/min
Orbital period
103.85 mins
BSTAR
0.000039001
Loading maneuver chart data...
Computing Atmospheric mass density...

Documentation

Showing up to 5 results
|